This is the latest recevied weather packets stored in our database for station/object KC3BAN-3. If no packets are shown the sender has not sent any weather packets the latest 10 day(s).
| Time | Temp. | Humidity | Pressure | Rain* | Wind** | Luminosity | Snow |
|---|---|---|---|---|---|---|---|
| 1777666866 | 13.89° C | 76% | 1014.7 hPa | 0 mm | - | - | - |
| 1777666692 | 13.89° C | 75% | 1014.7 hPa | 0 mm | - | - | - |
| 1777666256 | 13.89° C | 76% | 1014.8 hPa | 0 mm | - | - | - |
| 1777665951 | 13.89° C | 76% | 1014.9 hPa | 0 mm | - | - | - |
| 1777665775 | 13.89° C | 77% | 1015 hPa | 0 mm | - | - | - |
| 1777665468 | 13.33° C | 79% | 1014.9 hPa | 0 mm | - | - | - |
| 1777665166 | 12.78° C | 78% | 1015 hPa | 0 mm | - | - | - |
| 1777664738 | 12.78° C | 77% | 1015 hPa | 0 mm | - | - | - |
| 1777664438 | 12.78° C | 77% | 1015 hPa | 0 mm | - | - | - |
| 1777664136 | 12.78° C | 77% | 1015.1 hPa | 0 mm | - | - | - |
| 1777663836 | 12.78° C | 77% | 1015.1 hPa | 0 mm | - | - | - |
| 1777663536 | 12.78° C | 78% | 1015.2 hPa | 0 mm | - | - | - |
| 1777663240 | 12.78° C | 78% | 1015.3 hPa | 0 mm | - | - | - |
| 1777663069 | 12.78° C | 77% | 1015.5 hPa | 0 mm | - | - | - |
| 1777662642 | 12.78° C | 77% | 1015.6 hPa | 0 mm | - | - | - |
| 1777662341 | 13.33° C | 77% | 1015.5 hPa | 0 mm | - | - | - |
| 1777662040 | 13.33° C | 76% | 1015.7 hPa | 0 mm | - | - | - |
| 1777661736 | 13.33° C | 75% | 1015.7 hPa | 0 mm | - | - | - |
| 1777661438 | 13.33° C | 74% | 1015.7 hPa | 0 mm | - | - | - |
| 1777661136 | 13.89° C | 73% | 1015.8 hPa | 0 mm | - | - | - |
| 1777660836 | 14.44° C | 73% | 1016.1 hPa | 0 mm | - | - | - |
| 1777660535 | 15° C | 72% | 1016 hPa | 0 mm | - | - | - |
| 1777660236 | 15° C | 72% | 1016 hPa | 0 mm | - | - | - |
| 1777660083 | 15° C | 73% | 1016 hPa | 0 mm | - | - | - |
| 1777659627 | 14.44° C | 73% | 1016.1 hPa | 0 mm | - | - | - |
* Rain latest hour (hover to see other rain measurements)
** Current wind speed in m/s (hover to see current wind gust speed)